PPI weather

Port Pirie Airport
South Australia, Australia

Public forecast

Using degrees Celsius for public forecast. Weather courtesy of forecast.io.

Closest aviation weather report (METAR) to Port Pirie Airport

Closest report is Whyalla Airport, 26.5 nm (49.0 km) WNW. Retrieved 2020/04/08 11:00 UTC (36 minutes ago):

YWHA 081100Z AUTO 15012KT 9999 // NCD 18/12 Q1023

Closest aviation forecast (TAF) to Port Pirie Airport

Forecast is more than 12 hours old.

Closest forecast is Whyalla Airport, 26.5 nm (49.0 km) WNW. Retrieved 2018/11/15 18:03 UTC (1 year ago):

TAF YWHA 151701Z 1518/1608 VRB05KT CAVOK FM152300 18012KT CAVOK FM160200 18018KT CAVOK